Change the Weather History Date:

Friday, November 18, 2011

  Actual Average Record
Temperature  
Mean Temperature 40 °F -  
Max Temperature 44 °F 51 °F 66 °F (2003)
Min Temperature 35 °F 36 °F 18 °F (1955)
Degree Days  
Heating Degree Days 26    
Moisture  
Dew Point 33 °F    
Average Humidity 83    
Maximum Humidity 93    
Minimum Humidity 63    
Precipitation  
Precipitation 0.14 in - - ()
Sea Level Pressure  
Sea Level Pressure 29.67 in    
Wind  
Wind Speed 3 mph (WNW)    
Max Wind Speed 13 mph    
Max Gust Speed -    
Visibility 10 miles    
Events Rain    
Averages and records for this station are not official NWS values.
T = Trace of Precipitation, MM = Missing Value Source: NWS Daily Summary

Daily Weather History Graph

Daily Weather History Graph

Search for Another Location

Airport or City:

Trip Planner

Search our weather history database for the weather conditions in past years. The results will help you decide how hot, cold, wet, or windy it might be!

Date:

Astronomy

Nov. 18, 2011 Rise Set
Actual Time 7:07 AM PST 4:31 PM PST
Civil Twilight 6:35 AM PST 5:03 PM PST
Nautical Twilight 5:59 AM PST 5:39 PM PST
Astronomical Twilight 5:24 AM PST 6:15 PM PST
Moon No Moon Rise 12:40 PM PST (11/18)
Length of Visible Light 10h 28m
Length of Day
9h 23m
Waning Gibbous, 48% of the Moon is Illuminated
Nov 18
Waning Gibbous
Nov 24
New
Dec 2
First Quarter
Dec 10
Full
Dec 17
Last Quarter

Hourly Weather History & Observations

Time (PST) Temp. Windchill Dew Point Humidity Pressure Visibility Wind Dir Wind Speed Gust Speed Precip Events Conditions
12:53 AM 39.9 °F - 36.0 °F 86% 29.66 in 5.0 mi Calm Calm - 0.02 in Rain Light Rain
1:14 AM 39.2 °F 37.0 °F 35.6 °F 87% 29.64 in 4.0 mi NNE 3.5 mph - 0.04 in Rain Rain
1:40 AM 37.4 °F 34.9 °F 35.6 °F 93% 29.63 in 10.0 mi NW 3.5 mph - 0.04 in   Mostly Cloudy
1:53 AM 39.0 °F 35.7 °F 35.1 °F 86% 29.65 in 10.0 mi WNW 4.6 mph - 0.04 in   Mostly Cloudy
2:53 AM 39.0 °F 36.8 °F 35.1 °F 86% 29.67 in 9.0 mi WNW 3.5 mph - 0.02 in Rain Light Rain
3:30 AM 37.4 °F - 33.8 °F 87% 29.63 in 10.0 mi Calm Calm - 0.02 in   Scattered Clouds
3:53 AM 37.0 °F - 33.1 °F 86% 29.63 in 10.0 mi Calm Calm - 0.02 in   Mostly Cloudy
4:07 AM 37.4 °F - 33.8 °F 87% 29.62 in 10.0 mi Calm Calm - N/A   Overcast
4:19 AM 37.4 °F - 33.8 °F 87% 29.63 in 10.0 mi Calm Calm - N/A   Mostly Cloudy
4:53 AM 37.0 °F - 33.1 °F 86% 29.64 in 10.0 mi Calm Calm - 0.00 in Rain Light Rain
5:53 AM 35.1 °F 29.3 °F 32.0 °F 89% 29.63 in 10.0 mi SSE 6.9 mph - 0.01 in   Scattered Clouds
6:53 AM 36.0 °F - 32.0 °F 86% 29.63 in 10.0 mi Calm Calm - N/A   Mostly Cloudy
7:53 AM 35.1 °F - 32.0 °F 89% 29.64 in 10.0 mi Calm Calm - N/A   Partly Cloudy
8:07 AM 35.6 °F - 32.0 °F 87% 29.64 in 10.0 mi Calm Calm - N/A   Mostly Cloudy
8:43 AM 35.6 °F - 33.8 °F 93% 29.64 in 10.0 mi Calm Calm - N/A   Scattered Clouds
8:53 AM 36.0 °F - 33.1 °F 89% 29.65 in 10.0 mi Calm Calm - N/A   Scattered Clouds
9:01 AM 37.4 °F - 33.8 °F 87% 29.64 in 9.0 mi Calm Calm - N/A   Mostly Cloudy
9:53 AM 39.0 °F - 35.1 °F 86% 29.65 in 10.0 mi Calm Calm - N/A   Scattered Clouds
10:53 AM 41.0 °F - 35.1 °F 79% 29.65 in 10.0 mi Calm Calm - N/A   Mostly Cloudy
11:45 AM 42.8 °F 41.1 °F 35.6 °F 76% 29.64 in 10.0 mi West 3.5 mph - N/A   Mostly Cloudy
11:53 AM 43.0 °F 40.3 °F 36.0 °F 76% 29.64 in 10.0 mi Variable 4.6 mph - N/A   Mostly Cloudy
12:53 PM 43.0 °F 37.7 °F 33.1 °F 68% 29.64 in 10.0 mi NW 9.2 mph - 0.00 in   Mostly Cloudy
1:53 PM 44.1 °F 38.1 °F 32.0 °F 63% 29.64 in 10.0 mi NW 11.5 mph - N/A   Clear
2:53 PM 44.1 °F 40.1 °F 32.0 °F 63% 29.66 in 10.0 mi NW 6.9 mph - N/A   Partly Cloudy
3:53 PM 42.1 °F 35.7 °F 30.9 °F 65% 29.68 in 10.0 mi WNW 11.5 mph - N/A   Partly Cloudy
4:53 PM 39.0 °F 32.8 °F 30.9 °F 73% 29.70 in 10.0 mi NW 9.2 mph - N/A   Clear
5:53 PM 39.9 °F 32.5 °F 32.0 °F 73% 29.71 in 10.0 mi WNW 12.7 mph - N/A   Clear
6:53 PM 37.0 °F 32.4 °F 30.0 °F 76% 29.72 in 10.0 mi South 5.8 mph - N/A   Clear
7:53 PM 37.0 °F 31.6 °F 30.9 °F 79% 29.73 in 10.0 mi SSW 6.9 mph - N/A   Clear
8:53 PM 37.0 °F - 30.9 °F 79% 29.74 in 10.0 mi Calm Calm - N/A   Overcast
9:53 PM 37.0 °F - 32.0 °F 82% 29.76 in 7.0 mi Calm Calm - 0.02 in Rain Light Rain
10:49 PM 35.6 °F 31.7 °F 33.8 °F 93% 29.76 in 10.0 mi North 4.6 mph - 0.01 in   Overcast
10:53 PM 36.0 °F 33.3 °F 33.1 °F 89% 29.76 in 10.0 mi North 3.5 mph - 0.01 in   Overcast
11:10 PM 37.4 °F - 33.8 °F 87% 29.76 in 10.0 mi Calm Calm - N/A   Overcast
11:49 PM 37.4 °F - 33.8 °F 87% 29.76 in 10.0 mi Calm Calm - 0.00 in Rain Light Rain
11:53 PM 37.0 °F - 33.1 °F 86% 29.77 in 10.0 mi Calm Calm - 0.00 in   Overcast